Location: Newark
(54.4333°N, 18.5500°E)
Time: 03:42:12
(UTC+00:00)

Envisat - Pass Details

Date: 12 December 2019
Orbit: 764 x 766 km, 98.1° (Epoch: 19 January)

Event Time Altitude Azimuth Distance (km) Brightness Sun altitude
Rises 05:02:13 0° 19° (NNE) 3,248 6.3 -15.4°
Reaches altitude 10° 05:04:43 10° 28° (NNE) 2,317 5.6 -15.0°
Maximum altitude 05:09:27 37° 96° (E) 1,177 4.6 -14.4°
Drops below altitude 10° 05:14:08 10° 163° (SSE) 2,299 6.0 -13.7°
Sets 05:16:35 0° 172° (S) 3,221 6.6 -13.4°
